Regional Weather Roundup
Issued by NWS

Home | Current Version | Previous Version | Graphics & Text | Print | Product List | Glossary On
Versions: 1 2 3 4 5 6 7 8 9 10 11 12 13 14 15 16 17 18 19 20 21 22 23 24 25 26 27 28 29 30 31 32 33 34 35 36 37 38 39 40 41 42 43 44 45 46 47 48 49 50
000
ASUS43 KMPX 250710
RWRMN
WEATHER ROUNDUP FOR MINNESOTA
NATIONAL WEATHER SERVICE TWIN CITIES/CHANHASSEN MN
200 AM CDT FRI JUL 25 2014


NOTE: "FAIR" INDICATES FEW OR NO CLOUDS BELOW 12,000 FEET WITH NO
SIGNIFICANT WEATHER AND/OR OBSTRUCTIONS TO VISIBILITY. N/A MEANS
CURRENT SKY AND/OR WEATHER CONDITIONS ARE NOT AVAILABLE.

MNZ060>063-068>070-250800-
   Twin Cities Metro

CITY           SKY/WX    TMP DP  RH WIND       PRES   REMARKS
TWIN CITIES    MOCLDY    68  59  73 SE9       29.87F
ST PAUL        CLOUDY    68  59  73 SE13      29.86F
CRYSTAL        MOCLDY    70  58  65 SE12      29.84F
BLAINE         MOCLDY    70  61  73 SE8       29.85F
LAKEVILLE      MOCLDY    63  57  82 SE5       29.88F
EDEN PRAIRIE   MOCLDY    66  59  78 SE9       29.84F
SOUTH ST PAUL  MOCLDY    67  58  72 SE6       29.87F
LAKE ELMO      FAIR      64  61  88 E6        29.88F
$$
MNZ001>005-007-008-013>017-022>024-027-028-250800-
   Northwest Minnesota

CITY           SKY/WX    TMP DP  RH WIND       PRES   REMARKS
BEMIDJI        CLOUDY    67  59  76 S7        29.82F
HALLOCK        MOCLDY    68  61  77 S5        29.79F
ROSEAU         PTCLDY    63  57  82 NE5       29.83R
WARROAD        MOCLDY    63  59  88 E3        29.84S
THIEF RVR FALL CLOUDY    68  59  73 SE6       29.80F
CROOKSTON      CLOUDY    70  61  73 SE7       29.78F
FOSSTON        CLOUDY    66  57  72 SE8       29.81F
DETROIT LAKES  MOCLDY    68  61  77 SE14G23   29.80F
MOORHEAD       MOCLDY    70  64  83 SE9       29.76S
PARK RAPIDS    CLOUDY    66  61  84 SE8       29.83F
$$
MNZ006-009>011-018-025>026-250800-
   North Central Minnesota

CITY           SKY/WX    TMP DP  RH WIND       PRES   REMARKS
BAUDETTE       CLOUDY    64  57  78 VRB5      29.84F
FLAG ISLAND    MOCLDY    70  61  73 SE3       29.83F
INTL FALLS     MOCLDY    59  57  93 E5        29.85F
WASKISH        PTCLDY    61  57  88 E3        29.83F
BIG FORK       MOCLDY    63  59  88 SE3       29.87F
LONGVILLE      CLOUDY    66  63  88 CALM      29.83F
GRAND RAPIDS   MOCLDY    64  57  77 E3        29.86F
CRANE LAKE     DRIZZLE   55  54  94 CALM      29.91F
ORR            MOCLDY    61  54  77 E3        29.87F
COOK           MOCLDY    57  55  94 CALM      29.90F
$$
MNZ012-019>021-037-250800-
   Northeast Minnesota

CITY           SKY/WX    TMP DP  RH WIND       PRES   REMARKS
DULUTH         CLOUDY    65  57  75 SE6       29.89F
ELY            CLOUDY    55  52  88 CALM      29.91F
HIBBING        MOCLDY    62  58  86 SE3       29.89F
EVELETH        MOCLDY    59  57  94 NE3       29.91F
DULUTH HARBOR  MOCLDY    61  55  82 NE8       29.90F
TWO HARBORS    MOCLDY    57  54  88 CALM      29.89F
SILVER BAY     MOCLDY    57  57 100 CALM      29.90S
GRAND MARAIS     N/A     53  51  93 CALM      29.91F
G MARAIS ARPRT CLEAR     48  46  93 CALM      29.95F
$$
MNZ029>031-032-039>041-046>048-054>057-064-250800-
   West Central Minnesota

CITY           SKY/WX    TMP DP  RH WIND       PRES   REMARKS
FERGUS FALLS   CLOUDY    66  57  72 SE13      29.77F
WHEATON        TSTM      64  59  82 SE8       29.79R
MORRIS         MOCLDY    66  61  82 SE12G18   29.75F
ALEXANDRIA     MOCLDY    64  60  87 SE10      29.83F
ELBOW LAKE     CLOUDY    66  60  82 SE14G22   29.77F
WADENA         MOCLDY    64  59  82 SE8       29.83S
GLENWOOD       MOCLDY    64  61  88 E9        29.83R
APPLETON       MOCLDY    66  61  82 SE10      29.77S
BENSON         MOCLDY    64  61  88 S9        29.78F
ORTONVILLE     MOCLDY    66  61  82 E12       29.76R THUNDER
MADISON        PTCLDY    68  63  83 SE12      29.75S
WILLMAR        FAIR      66  59  77 SE16G23   29.81F
$$
MNZ033>034-036-042>043-049>051-058-059-250800-
   Central Minnesota

CITY           SKY/WX    TMP DP  RH WIND       PRES   REMARKS
ST CLOUD       MOCLDY    66  59  78 SE7       29.84F
SAUK CENTRE    FAIR      63  59  88 E6        29.84R
PAYNESVILLE    MOCLDY    63  58  85 E8        29.84S
AITKIN         CLOUDY    68  63  83 CALM      29.84F
PINE RIVER     CLOUDY    66  61  82 SE9       29.87F
BRAINERD       CLOUDY    66  60  81 SE7       29.84F
STAPLES        MOCLDY    64  59  82 SE6       29.84F
LONG PRAIRIE   FAIR      61  59  94 E6        29.84F
LITTLE FALLS   MOCLDY    63  57  82 SE3       29.85R
LITCHFIELD     MOCLDY    66  63  88 SE7       29.85R
BUFFALO        MOCLDY    66  58  74 SE6       29.84F
MAPLE LAKE     MOCLDY    67  61  83 SE7       29.84F
$$
MNZ037-044-045-052-053-250800-
   East Central Minnesota

CITY           SKY/WX    TMP DP  RH WIND       PRES   REMARKS
PRINCETON      PTCLDY    66  61  82 E5        29.85F
MORA           CLOUDY    64  59  82 CALM      29.87F
CAMBRIDGE      MOCLDY    70  57  64 E6        29.84F
RUSH CITY      CLOUDY    67  61  83 CALM      29.88F
MOOSE LAKE     MOCLDY    63  59  88 CALM      29.86F
HINCKLEY       FAIR      64  61  88 CALM      29.88F
CLOQUET        CLOUDY    64  57  77 CALM      29.89F
MCGREGOR       CLOUDY    64  61  88 SE5       29.87F
$$
MNZ071>073-080-081-089-090-097-098-250800-
   Southwest Minnesota

CITY           SKY/WX    TMP DP  RH WIND       PRES   REMARKS
MONTEVIDEO     MOCLDY    64  61  88 S12       29.79S
GRANITE FALLS  CLOUDY    65  59  82 E16       29.79F
CANBY          MOCLDY    65  62  90 E7        29.75F
MARSHALL       CLOUDY    66  61  82 SE14      29.74F
REDWOOD FALLS  CLOUDY    66  61  84 SE18      29.80F
OLIVIA         CLOUDY    64  59  82 SE14      29.82F
PIPESTONE      PTCLDY    64  61  88 SE15      29.75F
WINDOM         TSTM      64  63  94 SE15      29.81F
WORTHINGTON    CLOUDY    64  61  88 E15       29.85S
JACKSON        TSTM      63  61  94 SE12G17   29.94R
TRACY          CLOUDY    67  63  85 S16G22    29.77F
SLAYTON        CLOUDY    63  62  96 SE18G24   29.79F
$$
MNZ065>067-074>077-082>085-091>093-250800-
   South Central Minnesota

CITY           SKY/WX    TMP DP  RH WIND       PRES   REMARKS
MANKATO        CLOUDY    68  57  68 SE12      29.88R
NEW ULM        CLOUDY    66  63  88 SE12      29.86S
ST JAMES       LGT RAIN  66  63  88 S9        29.90R
FAIRMONT       CLOUDY    64  59  82 S12       29.89R
GLENCOE        MOCLDY    67  58  74 SE8       29.85F
FARIBAULT      MOCLDY    68  55  64 SE9       29.89F
OWATONNA       MOCLDY    66  57  72 SE10G18   29.89F
WASECA         CLOUDY    63  54  72 SE9       29.91S
ALBERT LEA     MOCLDY    66  61  82 SE13G18   29.90R
$$
MNZ078>079-086>088-094>096-250800-
   Southeast Minnesota

CITY           SKY/WX    TMP DP  RH WIND       PRES   REMARKS
ROCHESTER      MOCLDY    63  59  87 SE12      29.93F
RED WING       CLOUDY    68  57  68 SE7       29.89F
STANTON        MOCLDY    66  58  73 SE8       29.86F
DODGE CENTER   MOCLDY    63  61  94 SE12      29.90F
WINONA         PTCLDY    66  61  82 SE5       29.94F
AUSTIN         MOCLDY    64  59  82 SE8       29.91F
PRESTON        PTCLDY    63  61  94 S10       29.94F
$$
ABBREVIATIONS USED IN REMARKS
   TC - TEMPERATURES IN CELSIUS
  WCI - WIND CHILL INDEX
   HX - HEAT INDEX
  VSB - VISIBILITY
$$



USA.gov is the U.S. government's official web portal to all federal, state and local government web resources and services.